User: anonymous   Login
Location: Kunchanapalle
(16.4623°N, 80.6176°E)
Time: 02:03:05
(UTC+00:00)
Language:

ASTRO E2 - Orbit

View from above orbital plane
View from above orbital plane
View from above satellite
View from above satellite

Ground track
Ground track

The orbit data is extracted from the following two-line orbital elements,

1 28773U 05025A   20302.20623452 +.00001421 +00000-0 +64342-4 0  9991
2 28773 031.3813 233.3460 0004318 105.6977 254.4147 15.17767502844149
Epoch (UTC): 28 October 2020 04:56:58
Eccentricity: 0.0004318
inclination: 31.3813°
perigee height: 509 km
apogee height: 515 km
right ascension of ascending node: 233.3460°
argument of perigee: 105.6977°
revolutions per day: 15.17767502
mean anomaly at epoch: 254.4147°
orbit number at epoch: 84414

The dashed part of the orbit path shows where the satellite is in the earth's shadow,  

DLR